Time,TemperatureF,DewpointF,PressureIn,WindDirection,WindDirectionDegrees,WindSpeedMPH,WindSpeedGustMPH,Humidity,HourlyPrecipIn,Conditions,Clouds,dailyrainin,SolarRadiationWatts/m^2,SoftwareType,DateUTC
2013-02-04 06:29:00,36.0,7.6,0.00,WNW,292,9.8,9.8,30,-99.99,,---,-99.99,0.00,VWS V14.01,2013-02-04 12:29:00,
2013-02-04 06:30:00,36.0,7.6,0.00,WNW,292,9.8,9.8,30,-99.99,,---,-99.99,0.00,VWS V14.01,2013-02-04 12:30:00,
2013-02-04 06:33:00,36.0,7.6,29.68,WNW,292,8.5,8.7,30,-99.99,,---,-99.99,0.00,VWS V14.01,2013-02-04 12:33:00,
2013-02-04 06:37:00,36.1,7.7,29.71,NW,315,9.4,10.1,30,-99.99,,---,-99.99,0.00,VWS V14.01,2013-02-04 12:37:00,
2013-02-04 06:42:00,36.1,7.7,29.71,WNW,292,8.7,8.7,30,-99.99,,---,-99.99,0.00,VWS V14.01,2013-02-04 12:42:00,
2013-02-04 06:48:00,35.8,7.4,29.71,WNW,292,4.9,7.4,30,-99.99,,---,-99.99,0.00,VWS V14.01,2013-02-04 12:48:00,
2013-02-04 06:55:00,35.2,7.7,29.71,NW,315,6.3,6.3,31,-99.99,,---,-99.99,0.00,VWS V14.01,2013-02-04 12:55:00,
2013-02-04 07:00:00,34.9,6.6,29.71,NW,315,3.8,4.3,30,-99.99,,---,-99.99,0.00,VWS V14.01,2013-02-04 13:00:00,
2013-02-04 07:05:00,34.9,6.6,29.71,NW,315,4.3,4.3,30,-99.99,,---,-99.99,0.00,VWS V14.01,2013-02-04 13:05:00,
2013-02-04 07:11:00,34.5,7.0,29.71,NNW,338,4.7,5.6,31,-99.99,,---,-99.99,0.00,VWS V14.01,2013-02-04 13:11:00,
2013-02-04 07:16:00,34.5,7.0,29.71,NNW,338,5.4,6.7,31,-99.99,,---,-99.99,0.00,VWS V14.01,2013-02-04 13:16:00,
2013-02-04 07:21:00,34.5,7.0,29.71,NNW,338,3.8,4.9,31,-99.99,,---,-99.99,0.00,VWS V14.01,2013-02-04 13:21:00,
2013-02-04 07:27:00,34.5,7.0,29.71,North,0,6.0,6.0,31,-99.99,,---,-99.99,0.00,VWS V14.01,2013-02-04 13:27:00,
2013-02-04 07:32:00,35.1,7.5,29.71,NNE,22,11.0,11.0,31,-99.99,,---,-99.99,0.00,VWS V14.01,2013-02-04 13:32:00,
2013-02-04 07:37:00,35.4,7.8,29.71,NNW,338,6.9,8.7,31,-99.99,,---,-99.99,0.00,VWS V14.01,2013-02-04 13:37:00,
2013-02-04 07:42:00,35.8,8.1,29.74,North,0,8.5,9.8,31,-99.99,,---,-99.99,0.00,VWS V14.01,2013-02-04 13:42:00,
2013-02-04 07:47:00,35.8,8.1,29.74,North,0,6.9,6.9,31,-99.99,,---,-99.99,0.00,VWS V14.01,2013-02-04 13:47:00,
2013-02-04 07:52:00,35.8,8.1,29.76,NNW,338,8.1,9.6,31,-99.99,,---,-99.99,0.00,VWS V14.01,2013-02-04 13:52:00,
2013-02-04 07:58:00,35.8,7.4,29.76,NNW,338,7.6,8.7,30,-99.99,,---,-99.99,0.00,VWS V14.01,2013-02-04 13:58:00,
2013-02-04 08:03:00,35.6,7.2,29.76,NNW,338,5.8,7.6,30,-99.99,,---,-99.99,0.00,VWS V14.01,2013-02-04 14:03:00,
2013-02-04 08:08:00,35.6,8.0,29.76,NNW,338,6.5,7.6,31,-99.99,,---,-99.99,0.00,VWS V14.01,2013-02-04 14:08:00,
2013-02-04 08:13:00,35.4,7.8,29.76,NNW,338,11.0,11.0,31,-99.99,,---,-99.99,0.00,VWS V14.01,2013-02-04 14:13:00,
2013-02-04 08:19:00,35.4,7.8,29.76,NNW,338,8.5,8.5,31,-99.99,,---,-99.99,0.00,VWS V14.01,2013-02-04 14:19:00,
2013-02-04 08:25:00,35.4,7.8,29.79,North,0,7.8,7.8,31,-99.99,,---,-99.99,0.00,VWS V14.01,2013-02-04 14:25:00,
2013-02-04 08:31:00,35.4,7.8,29.79,North,0,4.3,7.8,31,-99.99,,---,-99.99,0.00,VWS V14.01,2013-02-04 14:31:00,
2013-02-04 08:36:00,35.4,7.8,29.79,NNW,338,10.7,10.7,31,-99.99,,---,-99.99,0.00,VWS V14.01,2013-02-04 14:36:00,
2013-02-04 08:42:00,35.4,7.8,29.79,NNE,22,11.2,11.2,31,-99.99,,---,-99.99,0.00,VWS V14.01,2013-02-04 14:42:00,
2013-02-04 08:48:00,35.4,7.8,29.79,NNW,338,6.0,6.0,31,-99.99,,---,-99.99,0.00,VWS V14.01,2013-02-04 14:48:00,
2013-02-04 08:54:00,35.2,7.7,29.79,West,270,11.0,12.1,31,-99.99,,---,-99.99,0.00,VWS V14.01,2013-02-04 14:54:00,
2013-02-04 09:00:00,35.4,7.8,29.79,NNE,22,13.2,13.2,31,-99.99,,---,-99.99,0.00,VWS V14.01,2013-02-04 15:00:00,
2013-02-04 09:05:00,35.4,7.8,29.79,NNW,338,5.6,11.0,31,-99.99,,---,-99.99,0.00,VWS V14.01,2013-02-04 15:05:00,
2013-02-04 09:10:00,34.9,7.3,29.76,North,0,17.2,17.2,31,-99.99,,---,-99.99,0.00,VWS V14.01,2013-02-04 15:10:00,
2013-02-04 09:15:00,34.3,6.9,29.76,North,0,17.2,17.2,31,-99.99,,---,-99.99,0.00,VWS V14.01,2013-02-04 15:15:00,
2013-02-04 09:20:00,33.8,6.4,29.79,NNE,22,10.1,10.5,31,-99.99,,---,-99.99,0.00,VWS V14.01,2013-02-04 15:20:00,
2013-02-04 09:26:00,33.8,6.4,29.79,NW,315,9.8,10.1,31,-99.99,,---,-99.99,0.00,VWS V14.01,2013-02-04 15:26:00,
2013-02-04 09:32:00,32.5,5.3,29.79,NNE,22,8.5,14.8,31,-99.99,,---,-99.99,0.00,VWS V14.01,2013-02-04 15:32:00,
2013-02-04 09:37:00,32.5,5.3,29.79,NNW,338,10.3,10.3,31,-99.99,,---,-99.99,0.00,VWS V14.01,2013-02-04 15:37:00,
2013-02-04 09:42:00,31.1,4.0,29.82,NNW,338,5.8,8.7,31,-99.99,,---,-99.99,0.00,VWS V14.01,2013-02-04 15:42:00,
2013-02-04 09:48:00,30.2,3.9,29.82,NNE,22,12.1,12.1,32,-99.99,,---,-99.99,0.00,VWS V14.01,2013-02-04 15:48:00,
2013-02-04 09:53:00,28.6,2.5,29.85,NNW,338,12.5,15.4,32,-99.99,,---,-99.99,0.00,VWS V14.01,2013-02-04 15:53:00,
2013-02-04 09:59:00,28.0,3.3,29.85,NNW,338,9.8,9.8,34,-99.99,,---,-99.99,0.00,VWS V14.01,2013-02-04 15:59:00,
2013-02-04 10:05:00,27.5,4.7,29.85,NW,315,7.8,7.8,37,-99.99,,---,-99.99,0.00,VWS V14.01,2013-02-04 16:05:00,
2013-02-04 10:11:00,27.3,6.2,29.85,NNE,22,6.3,7.8,40,-99.99,,---,-99.99,0.00,VWS V14.01,2013-02-04 16:11:00,
2013-02-04 10:17:00,27.3,6.7,29.85,North,0,5.6,8.1,41,-99.99,,---,-99.99,0.00,VWS V14.01,2013-02-04 16:17:00,
2013-02-04 10:22:00,27.5,7.4,29.85,NNW,338,7.8,21.5,42,-99.99,,---,-99.99,0.00,VWS V14.01,2013-02-04 16:22:00,
2013-02-04 10:27:00,27.5,7.4,29.85,NNE,22,12.8,12.8,42,-99.99,,---,-99.99,0.00,VWS V14.01,2013-02-04 16:27:00,
2013-02-04 10:33:00,27.5,7.9,29.85,North,0,7.8,11.2,43,-99.99,,---,-99.99,0.00,VWS V14.01,2013-02-04 16:33:00,
2013-02-04 10:39:00,27.7,8.1,29.85,NNE,22,7.8,9.6,43,-99.99,,---,-99.99,0.00,VWS V14.01,2013-02-04 16:39:00,
2013-02-04 10:44:00,27.7,8.1,29.85,NNE,22,8.5,8.5,43,-99.99,,---,-99.99,0.00,VWS V14.01,2013-02-04 16:44:00,
2013-02-04 10:50:00,27.9,8.3,29.85,NNE,22,9.4,9.4,43,-99.99,,---,-99.99,0.00,VWS V14.01,2013-02-04 16:50:00,
2013-02-04 10:56:00,28.0,8.4,29.85,NNE,22,9.4,9.4,43,-99.99,,---,-99.99,0.00,VWS V14.01,2013-02-04 16:56:00,
2013-02-04 11:02:00,28.0,8.4,29.85,NNW,338,10.3,10.3,43,-99.99,,---,-99.99,0.00,VWS V14.01,2013-02-04 17:02:00,
2013-02-04 11:07:00,28.0,8.4,29.88,NNE,22,8.7,8.7,43,-99.99,,---,-99.99,0.00,VWS V14.01,2013-02-04 17:07:00,
2013-02-04 11:13:00,28.0,8.4,29.88,NNW,338,8.5,8.5,43,-99.99,,---,-99.99,0.00,VWS V14.01,2013-02-04 17:13:00,
2013-02-04 11:18:00,28.6,8.4,29.88,North,0,6.3,8.5,42,-99.99,,---,-99.99,0.00,VWS V14.01,2013-02-04 17:18:00,
2013-02-04 11:24:00,28.9,8.7,29.88,North,0,7.8,11.0,42,-99.99,,---,-99.99,0.00,VWS V14.01,2013-02-04 17:24:00,
2013-02-04 11:30:00,28.8,8.0,29.88,NNE,22,10.5,10.5,41,-99.99,,---,-99.99,0.00,VWS V14.01,2013-02-04 17:30:00,
2013-02-04 11:36:00,28.4,7.7,29.88,NNE,22,10.1,15.4,41,-99.99,,---,-99.99,0.00,VWS V14.01,2013-02-04 17:36:00,
2013-02-04 11:42:00,28.2,7.6,29.91,NNE,22,5.8,5.8,41,-99.99,,---,-99.99,0.00,VWS V14.01,2013-02-04 17:42:00,
2013-02-04 11:48:00,28.2,7.6,29.91,NNE,22,5.8,5.8,41,-99.99,,---,-99.99,0.00,VWS V14.01,2013-02-04 17:48:00,
2013-02-04 11:53:00,28.4,7.7,29.88,NNE,22,3.8,3.8,41,-99.99,,---,-99.99,0.00,VWS V14.01,2013-02-04 17:53:00,
2013-02-04 11:58:00,28.4,7.7,29.88,North,0,8.1,8.1,41,-99.99,,---,-99.99,0.00,VWS V14.01,2013-02-04 17:58:00,
2013-02-04 12:04:00,28.6,7.9,29.88,NNE,22,5.8,8.1,41,-99.99,,---,-99.99,0.00,VWS V14.01,2013-02-04 18:04:00,
2013-02-04 12:09:00,28.2,7.6,29.88,NNE,22,13.4,13.4,41,-99.99,,---,-99.99,0.00,VWS V14.01,2013-02-04 18:09:00,
2013-02-04 12:14:00,28.0,7.4,29.88,North,0,8.5,10.7,41,-99.99,,---,-99.99,0.00,VWS V14.01,2013-02-04 18:14:00,
2013-02-04 12:20:00,27.9,7.2,29.88,North,0,5.8,10.5,41,-99.99,,---,-99.99,0.00,VWS V14.01,2013-02-04 18:20:00,
2013-02-04 12:25:00,27.9,7.2,29.88,North,0,5.8,5.8,41,-99.99,,---,-99.99,0.00,VWS V14.01,2013-02-04 18:25:00,
2013-02-04 12:34:00,0.0,0.0,29.88,NNE,22,9.6,9.6,0,-99.99,,---,-99.99,0.00,VWS V14.01,2013-02-04 18:34:00,
2013-02-04 12:40:00,27.5,6.4,29.88,NNE,22,5.8,9.6,40,-99.99,,---,-99.99,0.00,VWS V14.01,2013-02-04 18:40:00,
2013-02-04 12:46:00,27.9,7.2,29.88,NNW,338,6.5,6.5,41,-99.99,,---,-99.99,0.00,VWS V14.01,2013-02-04 18:46:00,
2013-02-04 12:52:00,27.9,6.7,29.88,NNE,22,8.7,8.7,40,-99.99,,---,-99.99,0.00,VWS V14.01,2013-02-04 18:52:00,
2013-02-04 12:58:00,27.9,6.1,29.88,North,0,6.5,9.8,39,-99.99,,---,-99.99,0.00,VWS V14.01,2013-02-04 18:58:00,
2013-02-04 13:04:00,28.0,6.8,29.88,NNW,338,9.6,10.7,40,-99.99,,---,-99.99,0.00,VWS V14.01,2013-02-04 19:04:00,
2013-02-04 13:10:00,28.0,6.8,29.88,NNW,338,9.6,9.6,40,-99.99,,---,-99.99,0.00,VWS V14.01,2013-02-04 19:10:00,
2013-02-04 13:16:00,28.2,7.0,29.88,NNW,338,8.5,8.5,40,-99.99,,---,-99.99,0.00,VWS V14.01,2013-02-04 19:16:00,
2013-02-04 13:22:00,27.9,5.6,29.88,North,0,8.5,8.5,38,-99.99,,---,-99.99,0.00,VWS V14.01,2013-02-04 19:22:00,
2013-02-04 13:28:00,28.0,6.3,29.88,NNW,338,9.4,9.4,39,-99.99,,---,-99.99,0.00,VWS V14.01,2013-02-04 19:28:00,
2013-02-04 13:34:00,27.9,5.6,29.88,NNW,338,7.8,7.8,38,-99.99,,---,-99.99,0.00,VWS V14.01,2013-02-04 19:34:00,
2013-02-04 13:39:00,27.9,5.6,29.88,NNW,338,8.5,8.5,38,-99.99,,---,-99.99,0.00,VWS V14.01,2013-02-04 19:39:00,
2013-02-04 13:45:00,28.0,6.3,29.88,NNE,22,4.3,7.2,39,-99.99,,---,-99.99,0.00,VWS V14.01,2013-02-04 19:45:00,
2013-02-04 13:51:00,28.0,5.7,29.88,North,0,8.7,8.7,38,-99.99,,---,-99.99,0.00,VWS V14.01,2013-02-04 19:51:00,
2013-02-04 13:57:00,28.0,5.7,29.88,NNE,22,5.6,6.0,38,-99.99,,---,-99.99,0.00,VWS V14.01,2013-02-04 19:57:00,
2013-02-04 14:03:00,28.0,5.7,29.88,North,0,4.7,4.7,38,-99.99,,---,-99.99,0.00,VWS V14.01,2013-02-04 20:03:00,
2013-02-04 14:09:00,28.0,5.7,29.88,NNW,338,8.1,8.1,38,-99.99,,---,-99.99,0.00,VWS V14.01,2013-02-04 20:09:00,
2013-02-04 14:15:00,28.0,5.7,29.88,North,0,8.7,8.7,38,-99.99,,---,-99.99,0.00,VWS V14.01,2013-02-04 20:15:00,
2013-02-04 14:20:00,28.2,5.9,29.88,NNE,22,6.9,6.9,38,-99.99,,---,-99.99,0.00,VWS V14.01,2013-02-04 20:20:00,
2013-02-04 14:26:00,27.9,5.0,29.88,NNW,338,4.3,5.4,37,-99.99,,---,-99.99,0.00,VWS V14.01,2013-02-04 20:26:00,
2013-02-04 14:31:00,27.9,5.0,29.88,NNW,338,5.8,5.8,37,-99.99,,---,-99.99,0.00,VWS V14.01,2013-02-04 20:31:00,
2013-02-04 14:36:00,27.9,5.0,29.88,NNW,338,5.4,6.5,37,-99.99,,---,-99.99,0.00,VWS V14.01,2013-02-04 20:36:00,
2013-02-04 14:41:00,28.0,5.7,29.88,North,0,8.7,8.7,38,-99.99,,---,-99.99,0.00,VWS V14.01,2013-02-04 20:41:00,
2013-02-04 14:47:00,27.9,5.6,29.88,NNE,22,3.6,5.4,38,-99.99,,---,-99.99,0.00,VWS V14.01,2013-02-04 20:47:00,
2013-02-04 14:53:00,28.0,5.1,29.88,NNW,338,5.8,5.8,37,-99.99,,---,-99.99,0.00,VWS V14.01,2013-02-04 20:53:00,
2013-02-04 14:59:00,27.9,5.6,29.88,NNW,338,8.1,8.1,38,-99.99,,---,-99.99,0.00,VWS V14.01,2013-02-04 20:59:00,
2013-02-04 15:04:00,27.9,5.0,29.88,NNE,22,4.3,8.5,37,-99.99,,---,-99.99,0.00,VWS V14.01,2013-02-04 21:04:00,
2013-02-04 15:09:00,27.9,5.6,29.88,NNW,338,9.4,9.4,38,-99.99,,---,-99.99,0.00,VWS V14.01,2013-02-04 21:09:00,
2013-02-04 15:15:00,27.7,4.8,29.88,NNE,22,5.8,8.5,37,-99.99,,---,-99.99,0.00,VWS V14.01,2013-02-04 21:15:00,
2013-02-04 15:20:00,27.9,5.0,29.88,North,0,9.6,9.6,37,-99.99,,---,-99.99,0.00,VWS V14.01,2013-02-04 21:20:00,
2013-02-04 15:26:00,27.9,5.0,29.88,NNW,338,5.6,6.3,37,-99.99,,---,-99.99,0.00,VWS V14.01,2013-02-04 21:26:00,
2013-02-04 15:32:00,27.9,5.0,29.88,NNE,22,8.5,8.5,37,-99.99,,---,-99.99,0.00,VWS V14.01,2013-02-04 21:32:00,
2013-02-04 15:38:00,28.4,5.5,29.91,WNW,292,4.3,4.3,37,-99.99,,---,-99.99,0.00,VWS V14.01,2013-02-04 21:38:00,
2013-02-04 15:44:00,28.4,5.5,29.91,WNW,292,4.3,4.3,37,-99.99,,---,-99.99,0.00,VWS V14.01,2013-02-04 21:44:00,
2013-02-04 15:49:00,28.4,5.5,29.91,NNE,22,3.8,4.3,37,-99.99,,---,-99.99,0.00,VWS V14.01,2013-02-04 21:49:00,
2013-02-04 15:55:00,29.1,4.9,29.91,NNW,338,6.5,7.6,35,-99.99,,---,-99.99,0.00,VWS V14.01,2013-02-04 21:55:00,
2013-02-04 16:00:00,28.6,3.1,29.91,NNE,22,7.8,7.8,33,-99.99,,---,-99.99,0.00,VWS V14.01,2013-02-04 22:00:00,
2013-02-04 16:05:00,28.9,4.1,29.91,North,0,7.8,7.8,34,-99.99,,---,-99.99,0.00,VWS V14.01,2013-02-04 22:05:00,
2013-02-04 16:11:00,29.1,4.3,29.91,North,0,6.3,6.3,34,-99.99,,---,-99.99,0.00,VWS V14.01,2013-02-04 22:11:00,
2013-02-04 16:16:00,29.5,3.9,29.91,NNE,22,7.4,7.8,33,-99.99,,---,-99.99,0.00,VWS V14.01,2013-02-04 22:16:00,
2013-02-04 16:22:00,29.5,3.9,29.91,NNE,22,4.3,4.3,33,-99.99,,---,-99.99,0.00,VWS V14.01,2013-02-04 22:22:00,
2013-02-04 16:28:00,29.3,3.8,29.91,North,0,5.4,5.4,33,-99.99,,---,-99.99,0.00,VWS V14.01,2013-02-04 22:28:00,
2013-02-04 16:33:00,29.3,3.8,29.91,North,0,3.6,3.8,33,-99.99,,---,-99.99,0.00,VWS V14.01,2013-02-04 22:33:00,
2013-02-04 16:38:00,29.3,3.8,29.91,NNW,338,4.3,5.6,33,-99.99,,---,-99.99,0.00,VWS V14.01,2013-02-04 22:38:00,
2013-02-04 16:44:00,29.3,3.8,29.91,NNE,22,3.8,3.8,33,-99.99,,---,-99.99,0.00,VWS V14.01,2013-02-04 22:44:00,
2013-02-04 16:51:00,29.1,3.6,29.91,NNE,22,3.6,3.6,33,-99.99,,---,-99.99,0.00,VWS V14.01,2013-02-04 22:51:00,
2013-02-04 16:56:00,28.9,3.5,29.88,NNE,22,2.7,2.7,33,-99.99,,---,-99.99,0.00,VWS V14.01,2013-02-04 22:56:00,
2013-02-04 17:01:00,28.8,3.3,29.88,North,0,4.7,4.7,33,-99.99,,---,-99.99,0.00,VWS V14.01,2013-02-04 23:01:00,
2013-02-04 17:07:00,28.4,3.0,29.88,NNE,22,3.8,4.0,33,-99.99,,---,-99.99,0.00,VWS V14.01,2013-02-04 23:07:00,
2013-02-04 17:12:00,28.2,2.8,29.88,NNE,22,4.9,4.9,33,-99.99,,---,-99.99,0.00,VWS V14.01,2013-02-04 23:12:00,
2013-02-04 17:17:00,28.0,2.7,29.88,NNE,22,5.4,6.3,33,-99.99,,---,-99.99,0.00,VWS V14.01,2013-02-04 23:17:00,
2013-02-04 17:22:00,28.2,3.5,29.88,NNE,22,3.6,3.6,34,-99.99,,---,-99.99,0.00,VWS V14.01,2013-02-04 23:22:00,
2013-02-04 17:28:00,28.2,3.5,29.88,NE,45,2.5,2.5,34,-99.99,,---,-99.99,0.00,VWS V14.01,2013-02-04 23:28:00,
2013-02-04 17:34:00,28.2,3.5,29.88,NNE,22,2.9,2.9,34,-99.99,,---,-99.99,0.00,VWS V14.01,2013-02-04 23:34:00,
2013-02-04 17:40:00,27.9,2.5,29.88,NNE,22,2.5,3.8,33,-99.99,,---,-99.99,0.00,VWS V14.01,2013-02-04 23:40:00,
2013-02-04 17:46:00,27.9,2.5,29.88,NNE,22,3.1,3.4,33,-99.99,,---,-99.99,0.00,VWS V14.01,2013-02-04 23:46:00,
2013-02-04 17:51:00,27.7,2.3,29.88,NNW,338,2.2,3.8,33,-99.99,,---,-99.99,0.00,VWS V14.01,2013-02-04 23:51:00,
2013-02-04 17:57:00,27.5,2.2,29.88,NNW,338,3.6,3.6,33,-99.99,,---,-99.99,0.00,VWS V14.01,2013-02-04 23:57:00,
2013-02-04 18:02:00,27.5,2.8,29.88,NNE,22,2.9,3.6,34,-99.99,,---,-99.99,0.00,VWS V14.01,2013-02-05 00:02:00,
2013-02-04 18:07:00,27.3,2.7,29.88,NNE,22,3.4,3.4,34,-99.99,,---,-99.99,0.00,VWS V14.01,2013-02-05 00:07:00,
2013-02-04 18:13:00,27.0,1.7,29.88,North,0,1.1,1.6,33,-99.99,,---,-99.99,0.00,VWS V14.01,2013-02-05 00:13:00,
2013-02-04 18:18:00,27.0,1.7,29.88,NNE,22,0.0,1.1,33,-99.99,,---,-99.99,0.00,VWS V14.01,2013-02-05 00:18:00,
2013-02-04 18:24:00,26.6,2.0,29.88,NNW,338,2.9,2.9,34,-99.99,,---,-99.99,0.00,VWS V14.01,2013-02-05 00:24:00,
2013-02-04 18:30:00,26.6,2.0,29.88,NNE,22,1.6,1.6,34,-99.99,,---,-99.99,0.00,VWS V14.01,2013-02-05 00:30:00,
2013-02-04 18:36:00,26.2,1.7,29.88,NNE,22,0.0,0.0,34,-99.99,,---,-99.99,0.00,VWS V14.01,2013-02-05 00:36:00,
2013-02-04 18:42:00,26.1,1.5,29.88,SE,135,0.0,0.0,34,-99.99,,---,-99.99,0.00,VWS V14.01,2013-02-05 00:42:00,
2013-02-04 18:47:00,25.5,1.1,29.88,SE,135,0.0,0.0,34,-99.99,,---,-99.99,0.00,VWS V14.01,2013-02-05 00:47:00,
2013-02-04 18:53:00,25.3,0.9,29.85,SE,135,0.0,0.0,34,-99.99,,---,-99.99,0.00,VWS V14.01,2013-02-05 00:53:00,
2013-02-04 18:59:00,25.2,0.8,29.85,SE,135,0.0,0.0,34,-99.99,,---,-99.99,0.00,VWS V14.01,2013-02-05 00:59:00,
2013-02-04 19:04:00,24.8,1.0,29.85,SE,135,0.0,0.0,35,-99.99,,---,-99.99,0.00,VWS V14.01,2013-02-05 01:04:00,
2013-02-04 19:09:00,24.6,0.9,29.85,SE,135,0.0,0.0,35,-99.99,,---,-99.99,0.00,VWS V14.01,2013-02-05 01:09:00,
2013-02-04 19:15:00,24.4,0.7,29.85,SE,135,0.0,0.0,35,-99.99,,---,-99.99,0.00,VWS V14.01,2013-02-05 01:15:00,
2013-02-04 19:21:00,24.6,1.5,29.85,North,0,1.1,1.1,36,-99.99,,---,-99.99,0.00,VWS V14.01,2013-02-05 01:21:00,
2013-02-04 19:27:00,24.6,1.5,29.85,North,0,0.0,0.0,36,-99.99,,---,-99.99,0.00,VWS V14.01,2013-02-05 01:27:00,
2013-02-04 19:32:00,24.6,1.5,29.85,North,0,0.0,0.0,36,-99.99,,---,-99.99,0.00,VWS V14.01,2013-02-05 01:32:00,
2013-02-04 19:38:00,24.4,1.3,29.85,North,0,0.0,0.0,36,-99.99,,---,-99.99,0.00,VWS V14.01,2013-02-05 01:38:00,
2013-02-04 19:44:00,24.4,1.9,29.88,NNW,338,0.0,0.0,37,-99.99,,---,-99.99,0.00,VWS V14.01,2013-02-05 01:44:00,
2013-02-04 19:50:00,24.4,1.9,29.88,NNW,338,0.0,0.0,37,-99.99,,---,-99.99,0.00,VWS V14.01,2013-02-05 01:50:00,
2013-02-04 19:56:00,24.4,2.5,29.88,NW,315,2.2,2.2,38,-99.99,,---,-99.99,0.00,VWS V14.01,2013-02-05 01:56:00,
2013-02-04 20:02:00,24.4,2.5,29.88,NW,315,0.0,0.0,38,-99.99,,---,-99.99,0.00,VWS V14.01,2013-02-05 02:02:00,
2013-02-04 20:08:00,24.4,2.5,29.88,NW,315,0.0,0.0,38,-99.99,,---,-99.99,0.00,VWS V14.01,2013-02-05 02:08:00,
2013-02-04 20:14:00,24.4,2.5,29.88,NW,315,0.0,0.0,38,-99.99,,---,-99.99,0.00,VWS V14.01,2013-02-05 02:14:00,
2013-02-04 20:20:00,23.5,1.7,29.88,NW,315,1.6,1.6,38,-99.99,,---,-99.99,0.00,VWS V14.01,2013-02-05 02:20:00,
2013-02-04 20:25:00,23.4,0.9,29.88,NW,315,0.9,1.6,37,-99.99,,---,-99.99,0.00,VWS V14.01,2013-02-05 02:25:00,
2013-02-04 20:30:00,23.4,1.5,29.88,NW,315,0.0,0.0,38,-99.99,,---,-99.99,0.00,VWS V14.01,2013-02-05 02:30:00,
2013-02-04 20:36:00,23.4,2.1,29.88,NW,315,0.0,0.0,39,-99.99,,---,-99.99,0.00,VWS V14.01,2013-02-05 02:36:00,
2013-02-04 20:41:00,23.4,2.1,29.88,NW,315,0.0,0.0,39,-99.99,,---,-99.99,0.00,VWS V14.01,2013-02-05 02:41:00,
2013-02-04 20:47:00,23.5,2.8,29.88,NW,315,20.4,20.4,40,-99.99,,---,-99.99,0.00,VWS V14.01,2013-02-05 02:47:00,
2013-02-04 20:53:00,23.4,2.6,29.88,NW,315,1.6,2.0,40,-99.99,,---,-99.99,0.00,VWS V14.01,2013-02-05 02:53:00,
2013-02-04 20:58:00,23.4,2.6,29.88,NW,315,1.3,1.3,40,-99.99,,---,-99.99,0.00,VWS V14.01,2013-02-05 02:58:00,
2013-02-04 21:04:00,22.8,1.6,29.88,NW,315,0.0,0.0,39,-99.99,,---,-99.99,0.00,VWS V14.01,2013-02-05 03:04:00,